CZ-6A DEB

Satellite information

Favourite Embed

Satellite Type and Status

DEBRISIN ORBIT

Key statistics

Satellite CZ-6A DEB at a glance.

Uptime

1129

Days in orbit

Revolutions

≈ 14.9

Per day

Orbit

SSO

Sun Synchronous Orbit

Inclination

98.6

Latest

Satellite identification and parameters

Extended collection of information and parameters for CZ-6A DEB.

Object identification

Identified? True

Debris? True

Object name: CZ-6A DEB

International designator: 2022-151AEC

Object number (NORAD): 56604

Object ID (CCSDS): 56604

Country: PEOPLES REPUBLIC OF CHINA (PRC)

Current information (Y/N): Y

RCS size: SMALL

Orbital parameters

Period: 96.669 minutes

Inclination: 98.645 deg

SMA: 6977.247 km

Apoapsis: 631.333 km

Periapsis: 566.891 km

RAAN: 49.0023 deg

Eccentricy: 0.00461807

Argument of periapsis: 113.9389 deg

Mean anomaly: 246.6673 deg

Mean motion: 14.89623833 rev/day

Mean motion (dot): 0.00068853 rev/day2

B* drag term: 0.0070064653 1/REarth

Two-line elements (TLE)

Creation date: Dec. 13, 2025, 5:47 p.m.

Reference frame: TEME

Reference center: EARTH

Epoch: Dec. 13, 2025, 2:53 a.m. UTC

TLE line 0: 0 CZ-6A DEB

TLE line 1: 1 56604U 22151AEC 25347.12083232 .00068853 00000-0 70065-2 0 9994

TLE line 2: 2 56604 98.6450 49.0023 0046181 113.9389 246.6673 14.89623833150486

Live tracking on map

Real-time ground track for satellite CZ-6A DEB.

In-orbit conjunctions

A list of the most updated potential collisions computed for object CZ-6A DEB.

Target Orbit TCA Probability of collision Miss distance Type
SOLRAD 1 (GREB) LEO 2025-11-20 22:53:58 0.0001160504 563.0 (m) PAYLOAD

Associated space launch

Chinese satellite reported for atmospheric/ocean/environmental/spatial parameter research purposes, details TBD.

CZ-6A DEB was lifted into orbit during the mission ‘Long March 6A | Yunhai 3’, on board a Long March 6A space rocket.

The launch took place on Nov. 11, 2022, 10:52 p.m. from Launch Complex 9A.

For more information about the launch, click the button.

Launch to space Long March 6A | Yunhai 3
Long March 6A | Yunhai 3

Agency: N/A

Status: Launch Successful

Launch date: Nov. 11, 2022, 10:52 p.m. UTC

Rocket: Long March 6A

Launch pad: Launch Complex 9A

Location: Taiyuan Satellite Launch Center, People's Republic of China

...

Latest news about this satellite

There are no fresh news available about this satellite. Check back as we update our databases every day.


Newsletter sign-up

Weekly statistics, charts and insights to help you stay on top of the space industry.